Train No Train Name From To Distance Stops avg_speed (km/hr)
12448 U P Sampark Kranti Hazrat Nizamuddin Manikpur Junction 694 10 56
A Train's "Departure" Station, "Arrival" Station and "Distance" may vary. Although we have verified some of this data from enquiry.indianrail.gov.in
Train No Start Date (yyyy-mm-dd) Status Delay Time Source
12448 2017-01-01 Late 06 hours 58 minutes Source
12448 2017-01-02 Late 09 hours 25 minutes Source
12448 2017-01-03 Late 07 hours 10 minutes Source
12448 2017-01-04 Late 11 hours 35 minutes Source
12448 2017-01-06 Late 10 hours 01 minutes Source
12448 2017-01-07 Late 13 hours 28 minutes Source
12448 2017-01-08 Late 77 hours 57 minutes Source
12448 2017-01-09 Late 11 hours 35 minutes Source
12448 2017-01-10 Late 29 hours 57 minutes Source
12448 2017-01-12 Late 03 hours 28 minutes Source
12448 2017-01-13 Late 06 hours 40 minutes Source
12448 2017-01-14 Late 01 hours 25 minutes Source
12448 2017-01-15 Late 49 hours 58 minutes Source
12448 2017-01-16 Late 25 hours 58 minutes Source
12448 2017-01-17 Late 31 hours 31 minutes Source
12448 2017-01-18 Late 30 hours 10 minutes Source
12448 2017-01-20 On Time 0 Source
12448 2017-01-21 Late 22 hours 33 minutes Source
12448 2017-01-22 Late 26 hours 57 minutes Source
12448 2017-01-23 Late 02 hours 56 minutes Source
12448 2017-01-25 Late 42 hours 29 minutes Source
12448 2017-01-27 Late 51 hours 07 minutes Source
12448 2017-01-28 Late 27 hours 07 minutes Source
12448 2017-01-29 Late 24 hours 00 minutes Source
12448 2017-01-30 On Time 0 Source
12448 2017-01-31 Late 02 hours 09 minutes Source
12448 2017-02-01 Late 49 hours 46 minutes Source
12448 2017-02-02 Late 29 hours 49 minutes Source
12448 2017-02-05 Late 32 hours 10 minutes Source
12448 2017-02-06 Late 25 hours 00 minutes Source
12448 2017-02-10 Late 01 hours 55 minutes Source
12448 2017-02-11 Late 25 hours 10 minutes Source
12448 2017-02-12 Late 49 hours 13 minutes Source
12448 2017-02-13 Late 25 hours 13 minutes Source
12448 2017-02-14 Late 76 hours 04 minutes Source
12448 2017-02-15 Late 52 hours 10 minutes Source
12448 2017-02-18 On Time 0 Source
12448 2017-02-20 On Time 0 Source
12448 2017-02-22 Before 0 Source
12448 2017-02-23 Before 0 Source
12448 2017-02-24 On Time 0 Source
12448 2017-02-25 On Time 0 Source
12448 2017-02-27 On Time 0 Source
12448 2017-02-28 Before 0 Source
12448 2017-03-01 On Time 0 Source
12448 2017-03-02 On Time 0 Source
12448 2017-03-03 Before 0 Source
12448 2017-03-04 On Time 0 Source
12448 2017-03-05 Late 24 hours 00 minutes Source
12448 2017-03-06 On Time 0 Source
Page 1 of 2, showing 50 records out of 85 total